Chehalis, WA
on Friday, November 23, 2012

Friday
Previous Day Next Day
Daily Summary
 ActualAverage (KOLM)Record (KOLM)
Temperature
Mean Temperature °F 42°F  
Max Temperature 50°F 48°F 61°F (1957)
Min Temperature 44°F 35°F 0°F (1985)
Degree Days
Heating Degree Days 18 23  
Month to date heating degree days 480  
Since 1 July heating degree days 1274  
Cooling Degree Days 0 0  
Month to date cooling degree days 0  
Year to date cooling degree days 106  
Moisture
Dew Point 44°F   
Average Humidity 89    
Maximum Humidity 100    
Minimum Humidity 76    
Precipitation
Precipitation 0.21 in 0.30 in 3.39 in (1986)
Month to date precipitation 6.53  
Year to date precipitation 40.44  
Wind
Wind Speed 9 mph   
Max Wind Speed 18 mph   
Max Gust Speed 30 mph   
Visibility 6 miles   
Events Rain   

Key: T is trace of precipitation, MM is missing value
Source: NWS Daily Summary
Time(PST)TemperatureDew PointHumidity Pressure Visibility Wind DirectionWind SpeedGust SpeedPrecipitationEvents Conditions
12:15 AM 44.6°F 41.0°F 87% 30.23 in 7.0 miles SSW 4.6 mph - N/A Rain Light Rain
12:55 AM 44.6°F 41.0°F 87% 30.23 in 7.0 miles SSE 6.9 mph - N/A   Overcast
1:15 AM 44.6°F 39.2°F 81% 30.22 in 9.0 miles South 6.9 mph - N/A   Overcast
1:35 AM 44.6°F 39.2°F 81% 30.22 in 10.0 miles SSW 5.8 mph - N/A   Overcast
1:55 AM 44.6°F 39.2°F 81% 30.20 in 10.0 miles South 5.8 mph - N/A   Overcast
2:15 AM 44.6°F 39.2°F 81% 30.21 in 10.0 miles SSE 4.6 mph - N/A   Overcast
2:35 AM 46.4°F 39.2°F 76% 30.21 in 10.0 miles SSE 6.9 mph - N/A   Overcast
2:55 AM 46.4°F 39.2°F 76% 30.18 in 7.0 miles South 10.4 mph - N/A   Overcast
3:15 AM 46.4°F 39.2°F 76% 30.18 in 10.0 miles South 8.1 mph 18.4 mph N/A   Overcast
3:35 AM 44.6°F 39.2°F 81% 30.18 in 10.0 miles South 11.5 mph - N/A Rain Light Rain
3:55 AM 44.6°F 39.2°F 81% 30.18 in 8.0 miles South 9.2 mph 18.4 mph 0.01 in Rain Light Rain
4:15 AM 44.6°F 39.2°F 81% 30.18 in 8.0 miles South 8.1 mph - N/A   Overcast
4:35 AM 44.6°F 39.2°F 81% 30.17 in 9.0 miles South 10.4 mph 16.1 mph N/A Rain Light Rain
4:55 AM 44.6°F 39.2°F 81% 30.16 in 6.0 miles South 12.7 mph - N/A Rain Light Rain
5:15 AM 44.6°F 39.2°F 81% 30.16 in 8.0 miles South 13.8 mph 19.6 mph 0.01 in Rain Light Rain
5:35 AM 44.6°F 41.0°F 87% 30.16 in 10.0 miles South 12.7 mph 16.1 mph 0.01 in Rain Light Rain
5:55 AM 44.6°F 41.0°F 87% 30.14 in 10.0 miles South 12.7 mph 18.4 mph 0.01 in Rain Light Rain
6:15 AM 44.6°F 41.0°F 87% 30.14 in 7.0 miles South 13.8 mph 20.7 mph N/A Rain Light Rain
6:35 AM 44.6°F 41.0°F 87% 30.15 in 9.0 miles SSW 10.4 mph 19.6 mph N/A Rain Light Rain
7:15 AM 44.6°F 41.0°F 87% 30.14 in 9.0 miles South 10.4 mph 16.1 mph N/A Rain Light Rain
7:35 AM 44.6°F 41.0°F 87% 30.15 in 9.0 miles South 10.4 mph 17.3 mph 0.01 in   Overcast
7:55 AM 44.6°F 41.0°F 87% 30.15 in 10.0 miles South 12.7 mph 18.4 mph 0.01 in   Overcast
8:15 AM 46.4°F 41.0°F 81% 30.15 in 4.0 miles South 12.7 mph 18.4 mph N/A Rain Light Rain
8:35 AM 46.4°F 42.8°F 87% 30.14 in 5.0 miles South 16.1 mph 23.0 mph N/A   Mostly Cloudy
8:55 AM 46.4°F 42.8°F 87% 30.15 in 7.0 miles South 15.0 mph 20.7 mph N/A   Overcast
9:15 AM 48.2°F 42.8°F 82% 30.15 in 5.0 miles South 17.3 mph 25.3 mph N/A   Haze
9:35 AM 48.2°F 42.8°F 82% 30.14 in 9.0 miles SSW 17.3 mph 25.3 mph N/A   Mostly Cloudy
9:55 AM 48.2°F 42.8°F 82% 30.14 in 10.0 miles SSW 15.0 mph 21.9 mph N/A   Overcast
10:15 AM 48.2°F 42.8°F 82% 30.15 in 7.0 miles SSW 13.8 mph 27.6 mph N/A   Mostly Cloudy
10:35 AM 48.2°F 44.6°F 87% 30.13 in 5.0 miles South 13.8 mph 23.0 mph N/A   Partly Cloudy
10:55 AM 48.2°F 42.8°F 82% 30.13 in 5.0 miles South 12.7 mph 29.9 mph N/A   Haze
11:15 AM 50.0°F 44.6°F 82% 30.14 in 10.0 miles South 15.0 mph 19.6 mph N/A   Overcast
11:35 AM 48.2°F 44.6°F 87% 30.14 in 5.0 miles South 11.5 mph 23.0 mph N/A   Haze
11:55 AM 48.2°F 44.6°F 87% 30.14 in 10.0 miles South 9.2 mph - 0.01 in   Overcast
12:15 PM 48.2°F 44.6°F 87% 30.12 in 7.0 miles South 18.4 mph 21.9 mph 0.01 in   Mostly Cloudy
12:35 PM 48.2°F 46.4°F 93% 30.10 in 8.0 miles SSW 12.7 mph 24.2 mph 0.02 in   Mostly Cloudy
12:55 PM 48.2°F 46.4°F 93% 30.10 in 9.0 miles SSW 13.8 mph 23.0 mph 0.02 in   Overcast
1:15 PM 48.2°F 46.4°F 93% 30.07 in 5.0 miles South 15.0 mph 23.0 mph N/A   Overcast
1:35 PM 48.2°F 46.4°F 93% 30.09 in 6.0 miles South 12.7 mph 23.0 mph N/A   Overcast
2:15 PM 48.2°F 46.4°F 93% 30.07 in 3.0 miles South 15.0 mph 24.2 mph 0.02 in Rain Light Rain
2:35 PM 48.2°F 46.4°F 93% 30.09 in 4.0 miles SSW 8.1 mph 16.1 mph 0.05 in   Overcast
2:55 PM 48.2°F 46.4°F 93% 30.09 in 2.5 miles South 12.7 mph 19.6 mph 0.07 in   Overcast
3:15 PM 48.2°F 46.4°F 93% 30.08 in 3.0 miles South 15.0 mph 20.7 mph 0.03 in   Overcast
3:55 PM 48.2°F 46.4°F 93% 30.08 in 5.0 miles South 12.7 mph 19.6 mph 0.03 in   Overcast
4:15 PM 48.2°F 46.4°F 93% 30.08 in 8.0 miles South 13.8 mph 20.7 mph N/A   Overcast
4:35 PM 48.2°F 46.4°F 93% 30.08 in 5.0 miles South 12.7 mph 19.6 mph N/A Rain Light Rain
4:55 PM 48.2°F 46.4°F 93% 30.08 in 8.0 miles South 12.7 mph 19.6 mph N/A   Overcast
5:15 PM 48.2°F 46.4°F 93% 30.07 in 7.0 miles South 12.7 mph 17.3 mph N/A   Overcast
5:35 PM 48.2°F 46.4°F 93% 30.08 in 7.0 miles South 9.2 mph - 0.01 in   Overcast
5:55 PM 48.2°F 46.4°F 93% 30.08 in 5.0 miles South 9.2 mph - 0.01 in   Overcast
6:15 PM 48.2°F 46.4°F 93% 30.08 in 5.0 miles South 6.9 mph - N/A Rain Light Rain
6:55 PM 48.2°F 46.4°F 93% 30.10 in 3.0 miles South 4.6 mph - 0.01 in   Overcast
7:15 PM 48.2°F 46.4°F 93% 30.10 in 3.0 miles South 6.9 mph - N/A   Overcast
7:35 PM 48.2°F 46.4°F 93% 30.10 in 3.0 miles SSW 4.6 mph - N/A   Overcast
7:55 PM 48.2°F 46.4°F 93% 30.11 in 2.5 miles Calm Calm - 0.01 in   Overcast
8:15 PM 48.2°F 46.4°F 93% 30.11 in 1.2 miles Calm Calm - N/A Rain Light Rain
8:35 PM 48.2°F 48.2°F 100% 30.12 in 2.0 miles South 3.5 mph - 0.01 in   Overcast
8:55 PM 48.2°F 48.2°F 100% 30.13 in 2.0 miles South 3.5 mph - 0.01 in   Overcast
9:15 PM 48.2°F 48.2°F 100% 30.13 in 2.5 miles Calm Calm - N/A   Overcast
9:55 PM 48.2°F 48.2°F 100% 30.14 in 3.0 miles Calm Calm - 0.01 in   Overcast
10:15 PM 48.2°F 48.2°F 100% 30.15 in 7.0 miles SSW 3.5 mph - N/A   Overcast
10:35 PM 48.2°F 48.2°F 100% 30.16 in 9.0 miles SSW 3.5 mph - N/A   Overcast
10:55 PM 48.2°F 46.4°F 93% 30.16 in 9.0 miles SW 4.6 mph - N/A   Partly Cloudy
11:15 PM 46.4°F 46.4°F 100% 30.17 in 2.5 miles Calm Calm - N/A   Clear
11:35 PM 46.4°F 46.4°F 100% 30.18 in 1.5 miles ENE 3.5 mph - N/A   Scattered Clouds
Moon Phase
Nov. 23 Nov. 28 Dec. 06 Dec. 13 Dec. 20
Sunrise:07:26 AM (PST) Moon Rise:02:00 PM (PST)11/23
Sunset:04:30 PM (PST) Moon Set:02:36 AM (PST)11/23

Copyright © 2014 The Weather Underground, Inc.